Ahoskie, NC

1:23 AM EDT on September 20, 2017 (GMT -0400)
Tri County

Weather History for KASJ - September, 2012

Change the Weather History Date:

Friday, September 28, 2012

  Actual Average (KEMV) Record (KEMV)
Temperature  
Mean Temperature 70 °F -  
Max Temperature 84 °F 78 °F 89 °F (1993)
Min Temperature 57 °F 50 °F 36 °F (1989)
Cooling Degree Days 6    
Growing Degree Days 20 (Base 50)    
Moisture  
Dew Point 62 °F    
Average Humidity 77    
Maximum Humidity 94    
Minimum Humidity 51    
Precipitation  
Precipitation 0.00 in - - ()
Sea Level Pressure  
Sea Level Pressure 30.05 in    
Wind  
Wind Speed 2 mph (South)    
Max Wind Speed 6 mph    
Max Gust Speed -    
Visibility 8 miles    
Events Fog    
Averages and records for this station are not official NWS values.
T = Trace of Precipitation, MM = Missing Value Source: NWS Daily Summary

Daily Weather History Graph

Daily Weather History Graph

Search for Another Location

Airport or City:

Trip Planner

Search our weather history database for the weather conditions in past years. The results will help you decide how hot, cold, wet, or windy it might be!

Date:

Astronomy

Sep. 28, 2012 Rise Set
Actual Time 7:01 AM EDT 6:55 PM EDT
Civil Twilight 6:36 AM EDT 7:21 PM EDT
Nautical Twilight 6:06 AM EDT 7:51 PM EDT
Astronomical Twilight 5:36 AM EDT 8:21 PM EDT
Moon 5:56 PM EDT (9/28) 5:31 AM EDT (9/28)
Length of Visible Light 12h 45m
Length of Day
11h 54m
Waxing Gibbous, 98% of the Moon is Illuminated
Sep 28
Waxing Gibbous
Sep 29
Full
Oct 8
Last Quarter
Oct 15
New
Oct 21
First Quarter

Hourly Weather History & Observations

Time (EDT) Temp. Heat Index Dew Point Humidity Pressure Visibility Wind Dir Wind Speed Gust Speed Precip Events Conditions
12:15 AM 64.4 °F - 60.8 °F 88% 30.12 in 10.0 mi SSE 3.5 mph - N/A   Unknown
12:35 AM 64.4 °F - 60.8 °F 88% 30.12 in 10.0 mi South 3.5 mph - N/A   Unknown
12:55 AM 64.4 °F - 60.8 °F 88% 30.11 in 10.0 mi South 3.5 mph - N/A   Unknown
1:15 AM 62.6 °F - 59.0 °F 88% 30.11 in 10.0 mi SSE 3.5 mph - N/A   Unknown
1:35 AM 64.4 °F - 62.6 °F 94% 30.11 in 10.0 mi Calm Calm - N/A   Unknown
1:55 AM 64.4 °F - 62.6 °F 94% 30.12 in 10.0 mi Calm Calm - N/A   Unknown
2:15 AM 62.6 °F - 59.0 °F 88% 30.11 in 4.0 mi Calm Calm - N/A   Mist
2:35 AM 62.6 °F - 59.0 °F 88% 30.11 in 7.0 mi Calm Calm - N/A   Unknown
2:55 AM 60.8 °F - 59.0 °F 94% 30.11 in 1.2 mi Calm Calm - N/A   Mist
3:15 AM 60.8 °F - 59.0 °F 94% 30.10 in 4.0 mi Calm Calm - N/A   Mist
3:35 AM 60.8 °F - 59.0 °F 94% 30.10 in 5.0 mi Calm Calm - N/A   Mist
3:55 AM 60.8 °F - 59.0 °F 94% 30.09 in 7.0 mi Calm Calm - N/A   Unknown
4:15 AM 59.0 °F - 55.4 °F 88% 30.09 in 10.0 mi Calm Calm - N/A   Unknown
4:55 AM 59.0 °F - 55.4 °F 88% 30.09 in 0.2 mi Calm Calm - N/A Fog Fog
5:15 AM 59.0 °F - 55.4 °F 88% 30.09 in 0.5 mi Calm Calm - N/A Fog Fog
5:35 AM 57.2 °F - 55.4 °F 94% 30.08 in 0.2 mi Calm Calm - N/A Fog Fog
5:55 AM 59.0 °F - 55.4 °F 88% 30.08 in 0.2 mi Calm Calm - N/A Fog Fog
6:15 AM 57.2 °F - 53.6 °F 88% 30.08 in 0.2 mi Calm Calm - N/A Fog Fog
6:35 AM 59.0 °F - 57.2 °F 94% 30.09 in 0.5 mi Calm Calm - N/A Fog Fog
6:55 AM 59.0 °F - 55.4 °F 88% 30.08 in 0.5 mi Calm Calm - N/A Fog Fog
7:15 AM 57.2 °F - 55.4 °F 94% 30.09 in 1.0 mi Calm Calm - N/A   Mist
7:35 AM 59.0 °F - 55.4 °F 88% 30.09 in 0.2 mi Calm Calm - N/A Fog Fog
7:55 AM 60.8 °F - 59.0 °F 94% 30.09 in 2.5 mi Calm Calm - N/A   Mist
8:15 AM 64.4 °F - 62.6 °F 94% 30.08 in 7.0 mi Calm Calm - N/A   Unknown
8:35 AM 64.4 °F - 62.6 °F 94% 30.08 in 7.0 mi Calm Calm - N/A   Unknown
8:55 AM 64.4 °F - 62.6 °F 94% 30.09 in 10.0 mi South 3.5 mph - N/A   Unknown
9:15 AM 68.0 °F - 64.4 °F 88% 30.09 in 10.0 mi South 3.5 mph - N/A   Unknown
9:35 AM 69.8 °F - 64.4 °F 83% 30.09 in 10.0 mi South 3.5 mph - N/A   Unknown
9:55 AM 69.8 °F - 62.6 °F 78% 30.09 in 10.0 mi South 3.5 mph - N/A   Unknown
10:15 AM 71.6 °F - 64.4 °F 78% 30.08 in 10.0 mi Calm Calm - N/A   Unknown
10:35 AM 73.4 °F - 64.4 °F 73% 30.08 in 10.0 mi Calm Calm - N/A   Unknown
10:55 AM 75.2 °F - 64.4 °F 69% 30.08 in 10.0 mi Calm Calm - N/A   Unknown
11:15 AM 75.2 °F - 62.6 °F 65% 30.07 in 10.0 mi South 4.6 mph - N/A   Unknown
11:35 AM 77.0 °F - 62.6 °F 61% 30.06 in 10.0 mi Calm Calm - N/A   Unknown
11:55 AM 78.8 °F - 64.4 °F 61% 30.06 in 10.0 mi Calm Calm - N/A   Unknown
12:15 PM 77.0 °F - 62.6 °F 61% 30.06 in 10.0 mi South 3.5 mph - N/A   Unknown
12:35 PM 78.8 °F - 62.6 °F 57% 30.06 in 10.0 mi South 4.6 mph - N/A   Unknown
12:55 PM 78.8 °F - 62.6 °F 57% 30.04 in 10.0 mi South 5.8 mph - N/A   Unknown
1:15 PM 82.4 °F 83.9 °F 64.4 °F 54% 30.04 in 10.0 mi SW 3.5 mph - N/A   Unknown
1:35 PM 82.4 °F 83.4 °F 62.6 °F 51% 30.03 in 10.0 mi South 4.6 mph - N/A   Unknown
1:55 PM 84.2 °F 85.6 °F 64.4 °F 51% 30.02 in 10.0 mi South 3.5 mph - N/A   Unknown
2:15 PM 82.4 °F 83.4 °F 62.6 °F 51% 30.02 in 10.0 mi South 3.5 mph - N/A   Unknown
2:35 PM 82.4 °F 83.4 °F 62.6 °F 51% 30.01 in 10.0 mi South 5.8 mph - N/A   Unknown
2:55 PM 82.4 °F 83.9 °F 64.4 °F 54% 30.01 in 10.0 mi South 5.8 mph - N/A   Unknown
3:15 PM 80.6 °F 82.3 °F 64.4 °F 58% 30.01 in 10.0 mi South 3.5 mph - N/A   Unknown
3:35 PM 80.6 °F 82.3 °F 64.4 °F 58% 30.00 in 10.0 mi South 4.6 mph - N/A   Unknown
3:55 PM 84.2 °F 85.6 °F 64.4 °F 51% 29.99 in 10.0 mi South 4.6 mph - N/A   Unknown
4:15 PM 84.2 °F 85.6 °F 64.4 °F 51% 29.98 in 10.0 mi South 4.6 mph - N/A   Unknown
4:35 PM 82.4 °F 83.4 °F 62.6 °F 51% 29.98 in 10.0 mi South 5.8 mph - N/A   Unknown
4:55 PM 78.8 °F - 62.6 °F 57% 29.98 in 10.0 mi Calm Calm - N/A   Unknown
5:15 PM 78.8 °F - 64.4 °F 61% 29.98 in 10.0 mi South 3.5 mph - N/A   Unknown
5:35 PM 78.8 °F - 64.4 °F 61% 29.98 in 10.0 mi Calm Calm - N/A   Unknown
5:55 PM 77.0 °F - 64.4 °F 65% 29.99 in 10.0 mi Calm Calm - N/A   Unknown
6:15 PM 73.4 °F - 68.0 °F 83% 30.00 in 10.0 mi Calm Calm - N/A   Unknown
6:55 PM 71.6 °F - 66.2 °F 83% 30.01 in 10.0 mi NNW 4.6 mph - N/A   Unknown
7:15 PM 71.6 °F - 62.6 °F 73% 30.01 in 10.0 mi Calm Calm - N/A   Unknown
7:35 PM 71.6 °F - 62.6 °F 73% 30.00 in 10.0 mi Calm Calm - N/A   Unknown
7:55 PM 69.8 °F - 62.6 °F 78% 30.01 in 10.0 mi Calm Calm - N/A   Unknown
8:15 PM 69.8 °F - 62.6 °F 78% 30.01 in 10.0 mi Calm Calm - N/A   Unknown
8:35 PM 69.8 °F - 62.6 °F 78% 30.01 in 10.0 mi Calm Calm - N/A   Unknown
8:55 PM 69.8 °F - 64.4 °F 83% 30.00 in 10.0 mi SSE 3.5 mph - N/A   Unknown
9:15 PM 66.2 °F - 62.6 °F 88% 29.99 in 10.0 mi Calm Calm - N/A   Unknown
9:35 PM 69.8 °F - 64.4 °F 83% 30.00 in 10.0 mi Calm Calm - N/A   Unknown
9:55 PM 68.0 °F - 62.6 °F 83% 30.00 in 10.0 mi Calm Calm - N/A   Unknown
10:15 PM 64.4 °F - 60.8 °F 88% 30.00 in 10.0 mi South 3.5 mph - N/A   Unknown
10:35 PM 64.4 °F - 60.8 °F 88% 30.00 in 10.0 mi Calm Calm - N/A   Unknown
10:55 PM 66.2 °F - 60.8 °F 83% 30.00 in 10.0 mi Calm Calm - N/A   Unknown
11:15 PM 64.4 °F - 60.8 °F 88% 30.01 in 10.0 mi Calm Calm - N/A   Unknown
11:55 PM 64.4 °F - 60.8 °F 88% 29.99 in 10.0 mi Calm Calm - N/A   Unknown